Weather History for White Mountain, AK

Change the Weather History Date:

Saturday, November 16, 2013

  Actual Average (PAKK) Record (PAKK)
Temperature  
Mean Temperature 19 °F -  
Max Temperature 21 °F 19 °F 35 °F (2000)
Min Temperature 17 °F 12 °F -9 °F (2007)
Degree Days  
Heating Degree Days 46    
Moisture  
Dew Point 14 °F    
Average Humidity 82    
Maximum Humidity 92    
Minimum Humidity 74    
Precipitation  
Precipitation 0.00 in - - ()
Sea Level Pressure  
Sea Level Pressure 30.54 in    
Wind  
Wind Speed 9 mph (NW)    
Max Wind Speed 16 mph    
Max Gust Speed -    
Visibility 9 miles    
Events Snow    
Averages and records for this station are not official NWS values.
T = Trace of Precipitation, MM = Missing Value Source: NWS Daily Summary

Daily Weather History Graph

Daily Weather History Graph

Search for Another Location

Airport:

Trip Planner

Search our weather history database for the weather conditions in past years. The results will help you decide how hot, cold, wet, or windy it might be!

Date:

Astronomy

Nov. 16, 2013 Rise Set
Actual Time 10:32 AM AKST 4:43 PM AKST
Civil Twilight 9:29 AM AKST 5:46 PM AKST
Nautical Twilight 8:26 AM AKST 6:49 PM AKST
Astronomical Twilight 7:29 AM AKST 7:46 PM AKST
Moon 4:41 PM AKST (11/16) 9:22 AM AKST (11/16)
Length of Visible Light 8h 17m
Length of Day
6h 10m
Waxing Gibbous, 99% of the Moon is Illuminated
Nov 16
Waxing Gibbous
Nov 17
Full
Nov 25
Last Quarter
Dec 2
New
Dec 9
First Quarter

Hourly Weather History & Observations

Time (AKST) Temp. Windchill Dew Point Humidity Pressure Visibility Wind Dir Wind Speed Gust Speed Precip Events Conditions
12:58 AM 21.0 °F 14.6 °F 19.0 °F 92% 30.38 in 8.0 mi Variable 4.6 mph - 0.00 in Snow Light Snow
1:58 AM 19.9 °F 10.1 °F 18.0 °F 92% 30.39 in 10.0 mi North 8.1 mph - 0.00 in   Scattered Clouds
2:58 AM 21.0 °F 7.6 °F 19.0 °F 92% 30.42 in 8.0 mi NNW 15.0 mph - 0.00 in   Mostly Cloudy
3:58 AM 21.9 °F 8.2 °F 19.0 °F 89% 30.43 in 9.0 mi NNW 16.1 mph - 0.00 in   Overcast
4:58 AM 21.9 °F 10.4 °F 17.1 °F 82% 30.46 in 10.0 mi NW 11.5 mph - 0.00 in   Overcast
5:58 AM 21.0 °F 7.6 °F 16.0 °F 81% 30.46 in 10.0 mi NNW 15.0 mph - N/A   Overcast
6:58 AM 19.9 °F 9.3 °F 15.1 °F 81% 30.48 in 10.0 mi NW 9.2 mph - N/A   Overcast
7:58 AM 19.9 °F 7.3 °F 16.0 °F 85% 30.49 in 10.0 mi NW 12.7 mph - N/A   Overcast
8:58 AM 19.0 °F 8.2 °F 15.1 °F 85% 30.51 in 10.0 mi NW 9.2 mph - N/A   Overcast
9:58 AM 18.0 °F 7.7 °F 15.1 °F 88% 30.53 in 9.0 mi NW 8.1 mph - 0.00 in   Scattered Clouds
10:58 AM 17.1 °F 3.6 °F 12.0 °F 81% 30.55 in 9.0 mi NW 12.7 mph - N/A   Clear
11:58 AM 17.1 °F 5.0 °F 12.0 °F 81% 30.56 in 8.0 mi NW 10.4 mph - N/A   Clear
12:58 PM 18.0 °F 4.8 °F 12.9 °F 81% 30.58 in 9.0 mi NNW 12.7 mph - N/A   Overcast
1:58 PM 18.0 °F 6.1 °F 12.0 °F 78% 30.59 in 9.0 mi WNW 10.4 mph - N/A   Overcast
2:58 PM 18.0 °F 12.7 °F 12.0 °F 78% 30.60 in 9.0 mi SSE 3.5 mph - N/A   Mostly Cloudy
3:58 PM 18.0 °F 8.7 °F 12.0 °F 78% 30.60 in 8.0 mi NW 6.9 mph - N/A   Overcast
4:58 PM 17.1 °F 8.7 °F 12.0 °F 81% 30.61 in 9.0 mi NW 5.8 mph - N/A   Overcast
5:58 PM 18.0 °F 6.1 °F 10.9 °F 74% 30.61 in 10.0 mi NW 10.4 mph - N/A   Mostly Cloudy
6:58 PM 17.1 °F 10.0 °F 10.9 °F 77% 30.61 in 10.0 mi WNW 4.6 mph - N/A   Overcast
7:58 PM 17.1 °F 8.7 °F 10.9 °F 77% 30.62 in 10.0 mi NW 5.8 mph - N/A   Overcast
8:58 PM 17.1 °F 7.6 °F 10.9 °F 77% 30.62 in 10.0 mi NW 6.9 mph - N/A   Overcast
9:58 PM 17.1 °F 10.0 °F 10.9 °F 77% 30.62 in 10.0 mi WNW 4.6 mph - N/A   Overcast
10:58 PM 17.1 °F 8.7 °F 10.9 °F 77% 30.61 in 10.0 mi WNW 5.8 mph - N/A   Overcast
11:58 PM 18.0 °F 9.8 °F 10.9 °F 74% 30.62 in 10.0 mi NW 5.8 mph - N/A   Overcast